Location: Unspecified
(0.0000°N, 0.0000°E)
Time: 19:06:38
(UTC+00:00)

deb OV3-4 - Pass Details

Date: 21 April 2026
Orbit: 581 x 4210 km, 40.6° (Epoch: 13 May)

Event Time Altitude Azimuth Distance (km) Brightness Sun altitude
Rises 18:36:07 0° 307° (NW) 7,237 ? -9.2°
Reaches altitude 10° 18:41:50 10° 303° (WNW) 5,658 ? -10.6°
Maximum altitude 18:56:11 56° 229° (SW) 1,928 ? -14.1°
Drops below altitude 10° 19:03:24 10° 151° (SSE) 2,964 ? -15.8°
Enters shadow 19:03:51 - 150° (SSE) 3,103 ? -15.9°
